Location: Las Callecitas
(9.8750°N, 67.4611°W)
Time: 12:14:07
(UTC+00:00)

Cosmos 2056 Rocket - Pass Details

Date: 14 April 2024
Orbit: 739 x 799 km, 74.0° (Epoch: 24 May)

Event Time Altitude Azimuth Distance (km) Brightness Sun altitude
Rises 09:06:30 0° 348° (NNW) 3,290 6.8 -18.5°
Reaches altitude 10° 09:08:53 10° 349° (N) 2,363 6.1 -17.9°
Maximum altitude 09:14:17 84° 76° (ENE) 805 3.6 -16.7°
Drops below altitude 10° 09:19:40 10° 166° (SSE) 2,357 6.0 -15.4°
Sets 09:22:03 0° 166° (SSE) 3,281 6.8 -14.8°
